Back to catalog

STARLINK-5123

AliveCommunicationsVLEO
NORAD 53979·PAYLOAD·🇺🇸 United States

Launched Oct 5, 2022 from Vandenberg Space Force Base

Loading…

Next Passes (next 24 hours)

TLE

FreshSource: CelesTrak SupGP

Epoch: Sep 14, 2026, 14:24 UTC

1 53979C 22125R   26257.60048611 -.00014800  00000+0 -47585-3 0  2576
2 53979  53.1597  85.2592 0001233  88.7758 336.6661 15.31714330    18

Track STARLINK-5123 in real time with AllMySat

Download on the App Store